| time (UTC) | temp F | wind direction | speed MPH | gust MPH | rain 1hr in | rain 24hr in | rain mn in | humidity % | barometer mb |
| 20260904060507 | 55 | 225 | 0.0 | 0.0 | 0.00 | 0.07 | 0.00 | 99 | 1010.2 |
| 20260904060007 | 55 | 225 | 0.0 | 0.0 | 0.00 | 0.07 | 0.00 | 99 | 1010.2 |
| 20260904055507 | 55 | 225 | 0.0 | 0.0 | 0.00 | 0.07 | 0.00 | 99 | 1010.2 |
| 20260904055007 | 55 | 225 | 0.0 | 0.0 | 0.00 | 0.07 | 0.00 | 99 | 1010.3 |
| 20260904054507 | 55 | 225 | 0.0 | 0.0 | 0.00 | 0.07 | 0.00 | 99 | 1010.5 |
| 20260904054007 | 55 | 225 | 0.0 | 0.0 | 0.00 | 0.07 | 0.00 | 99 | 1010.5 |
| 20260904053507 | 55 | 225 | 0.0 | 0.0 | 0.00 | 0.07 | 0.00 | 99 | 1010.5 |
| 20260904053007 | 55 | 225 | 0.0 | 0.0 | 0.00 | 0.07 | 0.00 | 99 | 1010.5 |
| 20260904052507 | 55 | 225 | 0.0 | 0.0 | 0.00 | 0.07 | 0.00 | 99 | 1010.5 |
| 20260904052007 | 55 | 225 | 0.0 | 0.0 | 0.00 | 0.07 | 0.00 | 99 | 1010.5 |
| 20260904051507 | 56 | 225 | 0.0 | 0.0 | 0.00 | 0.07 | 0.00 | 99 | 1010.5 |
| 20260904051007 | 56 | 225 | 0.0 | 0.0 | 0.00 | 0.07 | 0.00 | 99 | 1010.5 |
| 20260904050506 | 56 | 225 | 0.0 | 0.0 | 0.00 | 0.07 | 0.00 | 99 | 1010.5 |
| 20260904050007 | 56 | 225 | 0.0 | 0.0 | 0.00 | 0.07 | 0.00 | 99 | 1010.5 |
| 20260904045507 | 56 | 225 | 0.0 | 0.0 | 0.00 | 0.07 | 0.00 | 99 | 1010.5 |
| 20260904045007 | 56 | 225 | 0.0 | 0.0 | 0.00 | 0.07 | 0.00 | 98 | 1010.5 |
| 20260904044507 | 56 | 225 | 0.0 | 0.0 | 0.00 | 0.07 | 0.00 | 98 | 1010.5 |
| 20260904044007 | 56 | 225 | 0.0 | 0.0 | 0.00 | 0.07 | 0.00 | 98 | 1010.5 |
| 20260904043507 | 56 | 225 | 0.0 | 0.0 | 0.00 | 0.07 | 0.00 | 98 | 1010.5 |
| 20260904043006 | 56 | 225 | 0.0 | 0.0 | 0.00 | 0.07 | 0.00 | 98 | 1010.5 |
| 20260904042507 | 56 | 225 | 0.0 | 0.0 | 0.00 | 0.07 | 0.00 | 98 | 1010.5 |
| 20260904042007 | 56 | 225 | 0.0 | 0.0 | 0.00 | 0.07 | 0.00 | 98 | 1010.5 |
| 20260904041507 | 56 | 225 | 0.0 | 0.0 | 0.00 | 0.07 | 0.00 | 98 | 1010.5 |
| 20260904041007 | 56 | 225 | 0.0 | 0.0 | 0.00 | 0.07 | 0.00 | 98 | 1010.5 |
| 20260904040507 | 56 | 225 | 0.0 | 0.0 | 0.00 | 0.07 | 0.00 | 98 | 1010.5 |
| 20260904040007 | 56 | 225 | 0.0 | 0.0 | 0.00 | 0.07 | 0.00 | 98 | 1010.5 |
| 20260904035507 | 56 | 225 | 0.0 | 0.0 | 0.00 | 0.07 | 0.00 | 98 | 1010.5 |
| 20260904035007 | 56 | 225 | 0.0 | 0.0 | 0.00 | 0.07 | 0.00 | 98 | 1010.5 |
| 20260904034507 | 57 | 225 | 0.0 | 0.0 | 0.00 | 0.07 | 0.00 | 98 | 1010.5 |
| 20260904034007 | 57 | 225 | 0.0 | 0.0 | 0.00 | 0.07 | 0.00 | 98 | 1010.5 |
| 20260904033507 | 57 | 225 | 0.0 | 0.0 | 0.00 | 0.07 | 0.00 | 97 | 1010.2 |
| 20260904033007 | 57 | 225 | 0.0 | 0.0 | 0.00 | 0.07 | 0.00 | 97 | 1010.2 |
| 20260904032507 | 57 | 225 | 0.0 | 0.0 | 0.00 | 0.07 | 0.00 | 97 | 1010.2 |
| 20260904032007 | 57 | 225 | 0.0 | 0.0 | 0.00 | 0.07 | 0.00 | 97 | 1010.2 |
| 20260904031507 | 57 | 225 | 0.0 | 0.0 | 0.00 | 0.07 | 0.00 | 97 | 1010.1 |
| 20260904031007 | 57 | 225 | 0.0 | 0.0 | 0.00 | 0.07 | 0.00 | 97 | 1009.9 |
| 20260904030507 | 58 | 225 | 0.0 | 0.0 | 0.00 | 0.07 | 0.00 | 96 | 1009.8 |
| 20260904030007 | 58 | 225 | 0.0 | 0.0 | 0.00 | 0.07 | 0.00 | 96 | 1009.8 |
| 20260904025507 | 58 | 225 | 0.0 | 0.0 | 0.00 | 0.07 | 0.00 | 96 | 1009.8 |
| 20260904025007 | 58 | 225 | 0.0 | 0.0 | 0.00 | 0.07 | 0.00 | 95 | 1009.8 |
| 20260904024507 | 59 | 225 | 0.0 | 0.0 | 0.00 | 0.07 | 0.00 | 95 | 1009.8 |
| 20260904024007 | 59 | 225 | 0.0 | 0.0 | 0.00 | 0.07 | 0.00 | 95 | 1009.8 |
| 20260904023507 | 59 | 225 | 0.0 | 0.0 | 0.00 | 0.07 | 0.00 | 95 | 1009.8 |
| 20260904023006 | 59 | 225 | 0.0 | 0.0 | 0.00 | 0.07 | 0.00 | 95 | 1009.8 |
| 20260904022508 | 60 | 225 | 0.0 | 0.0 | 0.00 | 0.07 | 0.00 | 94 | 1009.8 |
| 20260904022007 | 60 | 225 | 0.0 | 0.0 | 0.00 | 0.07 | 0.00 | 94 | 1009.8 |
| 20260904021507 | 60 | 225 | 0.0 | 0.0 | 0.00 | 0.07 | 0.00 | 94 | 1009.8 |
| 20260904021007 | 60 | 225 | 0.0 | 0.0 | 0.00 | 0.07 | 0.00 | 94 | 1009.8 |
| 20260904020507 | 61 | 225 | 0.0 | 0.0 | 0.00 | 0.07 | 0.00 | 94 | 1009.8 |
| 20260904020007 | 61 | 225 | 0.0 | 0.0 | 0.00 | 0.07 | 0.00 | 94 | 1009.8 |
| 20260904015507 | 61 | 225 | 0.0 | 0.0 | 0.00 | 0.07 | 0.00 | 94 | 1009.8 |
| 20260904015006 | 61 | 225 | 1.0 | 2.0 | 0.00 | 0.07 | 0.00 | 94 | 1009.8 |
| 20260904014507 | 61 | 261 | 1.0 | 2.0 | 0.00 | 0.07 | 0.00 | 93 | 1009.8 |
| 20260904014007 | 61 | 261 | 0.0 | 2.0 | 0.00 | 0.07 | 0.00 | 93 | 1009.8 |
| 20260904013507 | 61 | 153 | 3.0 | 6.0 | 0.00 | 0.07 | 0.00 | 93 | 1009.8 |
| 20260904013007 | 61 | 153 | 4.0 | 8.0 | 0.00 | 0.07 | 0.00 | 93 | 1009.8 |
| 20260904012508 | 61 | 180 | 1.0 | 5.0 | 0.00 | 0.07 | 0.00 | 94 | 1009.8 |
| 20260904012007 | 61 | 198 | 1.0 | 5.0 | 0.00 | 0.07 | 0.00 | 94 | 1009.8 |
| 20260904011507 | 61 | 225 | 0.0 | 0.0 | 0.00 | 0.07 | 0.00 | 94 | 1009.8 |
| 20260904011007 | 61 | 225 | 0.0 | 0.0 | 0.00 | 0.07 | 0.00 | 93 | 1009.8 |
| 20260904010507 | 61 | 225 | 0.0 | 0.0 | 0.00 | 0.07 | 0.00 | 93 | 1009.8 |
| 20260904010007 | 61 | 225 | 0.0 | 0.0 | 0.00 | 0.07 | 0.00 | 92 | 1009.8 |
| 20260904005507 | 61 | 225 | 0.0 | 1.0 | 0.00 | 0.07 | 0.00 | 91 | 1009.8 |
| 20260904005007 | 61 | 198 | 0.0 | 1.0 | 0.00 | 0.07 | 0.00 | 92 | 1009.8 |
| 20260904004507 | 61 | 171 | 2.0 | 5.0 | 0.00 | 0.07 | 0.00 | 89 | 1009.8 |
| 20260904004007 | 61 | 144 | 3.0 | 5.0 | 0.00 | 0.07 | 0.00 | 86 | 1009.8 |
| 20260904003507 | 62 | 162 | 2.0 | 6.0 | 0.00 | 0.07 | 0.00 | 83 | 1009.8 |
| 20260904003006 | 62 | 171 | 3.0 | 7.0 | 0.00 | 0.07 | 0.00 | 84 | 1009.8 |
| 20260904002507 | 62 | 261 | 1.0 | 4.0 | 0.00 | 0.07 | 0.00 | 90 | 1009.8 |
| 20260904002007 | 62 | 207 | 1.0 | 4.0 | 0.00 | 0.07 | 0.00 | 92 | 1009.8 |
| 20260904001507 | 62 | 144 | 6.0 | 7.0 | 0.00 | 0.07 | 0.00 | 92 | 1010.2 |
| 20260904001008 | 61 | 135 | 5.0 | 8.0 | 0.00 | 0.07 | 0.00 | 93 | 1010.2 |
| 20260904000507 | 60 | 153 | 3.0 | 5.0 | 0.00 | 0.07 | 0.00 | 94 | 1010.2 |
| 20260904000007 | 60 | 171 | 2.0 | 4.0 | 0.00 | 0.07 | 0.00 | 95 | 1010.1 |
| 20260903235507 | 60 | 99 | 2.0 | 5.0 | 0.00 | 0.07 | 0.00 | 95 | 1010.2 |
| 20260903235007 | 59 | 45 | 0.0 | 1.0 | 0.00 | 0.07 | 0.00 | 95 | 1010.1 |
| 20260903234507 | 59 | 135 | 1.0 | 4.0 | 0.00 | 0.07 | 0.00 | 95 | 1010.2 |
| 20260903234007 | 59 | 135 | 1.0 | 4.0 | 0.00 | 0.07 | 0.00 | 95 | 1010.2 |
| 20260903233506 | 59 | 135 | 0.0 | 0.0 | 0.00 | 0.07 | 0.00 | 95 | 1010.2 |
| 20260903233008 | 59 | 135 | 0.0 | 1.0 | 0.00 | 0.07 | 0.00 | 95 | 1010.2 |
| 20260903232507 | 59 | 135 | 1.0 | 6.0 | 0.00 | 0.07 | 0.00 | 94 | 1010.2 |
| 20260903232006 | 59 | 144 | 4.0 | 6.0 | 0.00 | 0.07 | 0.00 | 94 | 1010.4 |
| 20260903231507 | 60 | 144 | 6.0 | 7.0 | 0.00 | 0.06 | 0.00 | 94 | 1010.5 |
| 20260903231007 | 60 | 169 | 3.0 | 5.0 | 0.00 | 0.06 | 0.00 | 93 | 1010.5 |
| 20260903230507 | 60 | 126 | 7.0 | 9.0 | 0.00 | 0.06 | 0.00 | 92 | 1010.5 |
| 20260903230007 | 61 | 162 | 5.0 | 6.0 | 0.00 | 0.06 | 0.00 | 91 | 1010.5 |
| 20260903225507 | 61 | 162 | 6.0 | 7.0 | 0.00 | 0.06 | 0.00 | 91 | 1010.5 |
| 20260903225007 | 62 | 135 | 5.0 | 6.0 | 0.00 | 0.06 | 0.00 | 88 | 1010.5 |
| 20260903224507 | 62 | 153 | 5.0 | 8.0 | 0.00 | 0.06 | 0.00 | 87 | 1010.5 |
| 20260903224007 | 62 | 153 | 5.0 | 8.0 | 0.00 | 0.06 | 0.00 | 85 | 1010.5 |
| 20260903223507 | 63 | 108 | 6.0 | 9.0 | 0.00 | 0.06 | 0.00 | 83 | 1010.5 |
| 20260903223007 | 63 | 169 | 5.0 | 8.0 | 0.00 | 0.06 | 0.00 | 81 | 1010.5 |
| 20260903222507 | 63 | 225 | 5.0 | 8.0 | 0.00 | 0.06 | 0.00 | 78 | 1010.3 |
| 20260903222007 | 63 | 208 | 6.0 | 8.0 | 0.00 | 0.06 | 0.00 | 82 | 1010.2 |
| 20260903221507 | 64 | 162 | 6.0 | 7.0 | 0.00 | 0.06 | 0.00 | 86 | 1010.2 |
| 20260903221007 | 64 | 171 | 6.0 | 7.0 | 0.00 | 0.06 | 0.00 | 77 | 1010.2 |
| 20260903220506 | 64 | 108 | 8.0 | 10.0 | 0.00 | 0.06 | 0.00 | 74 | 1010.2 |
| 20260903220007 | 64 | 117 | 7.0 | 9.0 | 0.00 | 0.06 | 0.00 | 74 | 1010.2 |
| 20260903215507 | 64 | 153 | 7.0 | 10.0 | 0.00 | 0.06 | 0.00 | 75 | 1010.2 |
| 20260903215007 | 64 | 162 | 7.0 | 10.0 | 0.00 | 0.06 | 0.00 | 77 | 1010.2 |
| 20260903214507 | 64 | 126 | 5.0 | 9.0 | 0.00 | 0.06 | 0.00 | 79 | 1010.2 |
| 20260903214007 | 63 | 153 | 8.0 | 9.0 | 0.00 | 0.06 | 0.00 | 76 | 1010.2 |
| 20260903213506 | 63 | 99 | 8.0 | 12.0 | 0.00 | 0.06 | 0.00 | 75 | 1010.3 |
| 20260903213007 | 63 | 135 | 8.0 | 12.0 | 0.00 | 0.06 | 0.00 | 76 | 1010.5 |
| 20260903212507 | 63 | 144 | 9.0 | 11.0 | 0.00 | 0.06 | 0.00 | 76 | 1010.5 |
| 20260903212007 | 63 | 171 | 8.0 | 9.0 | 0.00 | 0.06 | 0.00 | 76 | 1010.5 |
| 20260903211507 | 63 | 135 | 7.0 | 12.0 | 0.00 | 0.06 | 0.00 | 75 | 1010.5 |
| 20260903211007 | 64 | 162 | 8.0 | 9.0 | 0.00 | 0.06 | 0.00 | 77 | 1010.5 |
| 20260903210507 | 64 | 172 | 7.0 | 9.0 | 0.00 | 0.06 | 0.00 | 83 | 1010.2 |
| 20260903210007 | 64 | 180 | 6.0 | 8.0 | 0.00 | 0.06 | 0.00 | 89 | 1010.2 |
| 20260903205507 | 63 | 171 | 6.0 | 9.0 | 0.00 | 0.06 | 0.00 | 88 | 1010.2 |
| 20260903205007 | 63 | 144 | 8.0 | 10.0 | 0.00 | 0.06 | 0.00 | 86 | 1010.2 |
| 20260903204507 | 63 | 171 | 7.0 | 9.0 | 0.00 | 0.06 | 0.00 | 86 | 1010.2 |
| 20260903204007 | 63 | 117 | 7.0 | 9.0 | 0.00 | 0.06 | 0.00 | 86 | 1010.2 |
| 20260903203506 | 63 | 135 | 6.0 | 7.0 | 0.00 | 0.06 | 0.00 | 87 | 1010.2 |
| 20260903203007 | 63 | 117 | 6.0 | 9.0 | 0.00 | 0.06 | 0.00 | 86 | 1010.2 |
| 20260903202507 | 63 | 126 | 5.0 | 6.0 | 0.00 | 0.06 | 0.00 | 86 | 1010.2 |
| 20260903202007 | 63 | 126 | 5.0 | 6.0 | 0.00 | 0.06 | 0.00 | 87 | 1010.2 |
| 20260903201506 | 63 | 153 | 7.0 | 8.0 | 0.00 | 0.06 | 0.00 | 84 | 1010.2 |
| 20260903201007 | 64 | 153 | 6.0 | 11.0 | 0.00 | 0.06 | 0.00 | 84 | 1010.2 |
| 20260903200507 | 64 | 171 | 8.0 | 10.0 | 0.00 | 0.06 | 0.00 | 85 | 1010.2 |
| 20260903200007 | 65 | 90 | 5.0 | 7.0 | 0.00 | 0.06 | 0.00 | 88 | 1010.2 |
| 20260903195507 | 64 | 135 | 6.0 | 8.0 | 0.00 | 0.06 | 0.00 | 87 | 1010.2 |
| 20260903195007 | 65 | 117 | 7.0 | 11.0 | 0.00 | 0.06 | 0.00 | 86 | 1010.2 |
| 20260903194507 | 64 | 135 | 4.0 | 5.0 | 0.00 | 0.06 | 0.00 | 91 | 1010.2 |
| 20260903194007 | 64 | 153 | 8.0 | 9.0 | 0.00 | 0.06 | 0.00 | 87 | 1010.2 |
| 20260903193507 | 64 | 54 | 5.0 | 8.0 | 0.00 | 0.06 | 0.00 | 92 | 1010.2 |
| 20260903193007 | 63 | 135 | 9.0 | 11.0 | 0.00 | 0.06 | 0.00 | 91 | 1010.2 |
| 20260903192507 | 63 | 189 | 5.0 | 9.0 | 0.00 | 0.06 | 0.00 | 91 | 1010.2 |
| 20260903192007 | 63 | 180 | 7.0 | 9.0 | 0.00 | 0.06 | 0.00 | 91 | 1010.2 |
| 20260903191506 | 63 | 153 | 7.0 | 9.0 | 0.00 | 0.06 | 0.00 | 93 | 1010.2 |
| 20260903191007 | 62 | 162 | 8.0 | 9.0 | 0.00 | 0.06 | 0.00 | 94 | 1010.3 |
| 20260903190507 | 61 | 99 | 6.0 | 7.0 | 0.00 | 0.06 | 0.00 | 95 | 1010.5 |
| 20260903190007 | 61 | 144 | 7.0 | 8.0 | 0.00 | 0.06 | 0.00 | 95 | 1010.5 |
| 20260903185506 | 61 | 180 | 8.0 | 10.0 | 0.00 | 0.06 | 0.00 | 95 | 1010.5 |
| 20260903185007 | 61 | 153 | 7.0 | 9.0 | 0.00 | 0.06 | 0.00 | 95 | 1010.5 |
| 20260903184507 | 61 | 144 | 8.0 | 10.0 | 0.00 | 0.06 | 0.00 | 95 | 1010.5 |
| 20260903184007 | 61 | 135 | 7.0 | 8.0 | 0.00 | 0.06 | 0.00 | 95 | 1010.5 |
| 20260903183507 | 62 | 108 | 9.0 | 11.0 | 0.00 | 0.06 | 0.00 | 95 | 1010.5 |
| 20260903183007 | 62 | 198 | 6.0 | 7.0 | 0.00 | 0.06 | 0.00 | 96 | 1010.3 |
| 20260903182508 | 61 | 153 | 5.0 | 5.0 | 0.00 | 0.06 | 0.00 | 97 | 1010.2 |
| 20260903182007 | 61 | 135 | 1.0 | 3.0 | 0.00 | 0.06 | 0.00 | 97 | 1010.2 |
| 20260903181507 | 61 | 180 | 4.0 | 7.0 | 0.00 | 0.06 | 0.00 | 97 | 1010.3 |
| 20260903181007 | 61 | 153 | 4.0 | 7.0 | 0.00 | 0.06 | 0.00 | 97 | 1010.5 |
| 20260903180507 | 61 | 153 | 4.0 | 7.0 | 0.00 | 0.06 | 0.00 | 98 | 1010.4 |
| 20260903180006 | 61 | 117 | 2.0 | 4.0 | 0.00 | 0.06 | 0.00 | 98 | 1010.2 |
| 20260903175507 | 61 | 153 | 3.0 | 5.0 | 0.00 | 0.06 | 0.00 | 98 | 1010.2 |
| 20260903175008 | 61 | 135 | 2.0 | 5.0 | 0.00 | 0.06 | 0.00 | 99 | 1010.2 |
| 20260903174506 | 60 | 153 | 2.0 | 6.0 | 0.00 | 0.06 | 0.00 | 99 | 1010.2 |
| 20260903174007 | 60 | 180 | 0.0 | 1.0 | 0.00 | 0.06 | 0.00 | 99 | 1010.2 |
| 20260903173507 | 59 | 180 | 1.0 | 4.0 | 0.00 | 0.06 | 0.00 | 99 | 1010.2 |
| 20260903173007 | 59 | 171 | 1.0 | 3.0 | 0.00 | 0.06 | 0.00 | 99 | 1010.2 |
| 20260903172506 | 59 | 135 | 1.0 | 3.0 | 0.00 | 0.06 | 0.00 | 99 | 1010.2 |
| 20260903172008 | 58 | 135 | 1.0 | 4.0 | 0.00 | 0.06 | 0.00 | 99 | 1010.2 |
| 20260903171506 | 58 | 135 | 0.0 | 1.0 | 0.00 | 0.06 | 0.00 | 99 | 1010.2 |
| 20260903171007 | 58 | 135 | 0.0 | 0.0 | 0.00 | 0.06 | 0.00 | 99 | 1010.4 |
| 20260903170507 | 57 | 135 | 0.0 | 0.0 | 0.00 | 0.06 | 0.00 | 99 | 1010.5 |
| 20260903170007 | 57 | 135 | 1.0 | 6.0 | 0.00 | 0.06 | 0.00 | 99 | 1010.5 |
| 20260903165507 | 57 | 135 | 2.0 | 5.0 | 0.00 | 0.06 | 0.00 | 99 | 1010.5 |
| 20260903165007 | 56 | 135 | 2.0 | 4.0 | 0.00 | 0.06 | 0.00 | 99 | 1010.5 |
| 20260903164507 | 56 | 135 | 0.0 | 0.0 | 0.00 | 0.06 | 0.00 | 99 | 1010.5 |
| 20260903164007 | 56 | 135 | 0.0 | 1.0 | 0.00 | 0.06 | 0.00 | 99 | 1010.5 |
| 20260903163507 | 55 | 135 | 0.0 | 0.0 | 0.00 | 0.06 | 0.00 | 99 | 1010.5 |
| 20260903163007 | 55 | 135 | 0.0 | 1.0 | 0.00 | 0.06 | 0.00 | 99 | 1010.5 |
| 20260903162507 | 55 | 135 | 0.0 | 0.0 | 0.00 | 0.06 | 0.00 | 99 | 1010.5 |
| 20260903162007 | 55 | 135 | 0.0 | 0.0 | 0.00 | 0.06 | 0.00 | 99 | 1010.5 |
| 20260903161506 | 55 | 135 | 0.0 | 1.0 | 0.00 | 0.06 | 0.00 | 99 | 1010.5 |
| 20260903161007 | 55 | 162 | 1.0 | 2.0 | 0.00 | 0.06 | 0.00 | 99 | 1010.5 |
| 20260903160507 | 55 | 135 | 3.0 | 6.0 | 0.00 | 0.05 | 0.00 | 99 | 1010.5 |
| 20260903160007 | 55 | 180 | 1.0 | 5.0 | 0.00 | 0.05 | 0.00 | 99 | 1010.5 |
| 20260903155507 | 55 | 126 | 1.0 | 5.0 | 0.00 | 0.05 | 0.00 | 99 | 1010.5 |
| 20260903155007 | 55 | 108 | 3.0 | 5.0 | 0.00 | 0.05 | 0.00 | 99 | 1010.5 |
| 20260903154507 | 55 | 162 | 2.0 | 4.0 | 0.00 | 0.05 | 0.00 | 99 | 1010.5 |
| 20260903154007 | 55 | 117 | 4.0 | 5.0 | 0.00 | 0.05 | 0.00 | 99 | 1010.5 |
| 20260903153506 | 55 | 153 | 3.0 | 5.0 | 0.00 | 0.05 | 0.00 | 99 | 1010.5 |
| 20260903153007 | 55 | 99 | 2.0 | 5.0 | 0.00 | 0.05 | 0.00 | 99 | 1010.5 |
| 20260903152507 | 55 | 144 | 1.0 | 7.0 | 0.00 | 0.05 | 0.00 | 99 | 1010.5 |
| 20260903152008 | 55 | 126 | 3.0 | 7.0 | 0.00 | 0.05 | 0.00 | 99 | 1010.5 |
| 20260903151507 | 55 | 18 | 1.0 | 2.0 | 0.00 | 0.05 | 0.00 | 99 | 1010.4 |
| 20260903151007 | 55 | 81 | 3.0 | 5.0 | 0.00 | 0.04 | 0.00 | 99 | 1010.5 |
| 20260903150507 | 55 | 199 | 5.0 | 9.0 | 0.00 | 0.04 | 0.00 | 99 | 1010.5 |
| 20260903150007 | 55 | 190 | 3.0 | 6.0 | 0.00 | 0.04 | 0.00 | 99 | 1010.2 |
| 20260903145506 | 55 | 171 | 5.0 | 7.0 | 0.00 | 0.04 | 0.00 | 99 | 1010.2 |
| 20260903145007 | 55 | 153 | 7.0 | 9.0 | 0.00 | 0.04 | 0.00 | 99 | 1010.2 |
| 20260903144507 | 55 | 154 | 2.0 | 4.0 | 0.00 | 0.04 | 0.00 | 99 | 1010.2 |
| 20260903144006 | 55 | 99 | 2.0 | 5.0 | 0.00 | 0.04 | 0.00 | 99 | 1010.2 |
| 20260903143507 | 54 | 99 | 1.0 | 4.0 | 0.00 | 0.04 | 0.00 | 99 | 1010.2 |
| 20260903143008 | 54 | 162 | 2.0 | 5.0 | 0.00 | 0.04 | 0.00 | 99 | 1010.2 |
| 20260903142506 | 54 | 99 | 1.0 | 6.0 | 0.00 | 0.04 | 0.00 | 99 | 1010.2 |
| 20260903142007 | 54 | 135 | 2.0 | 6.0 | 0.00 | 0.04 | 0.00 | 99 | 1010.0 |
| 20260903141507 | 54 | 135 | 0.0 | 1.0 | 0.00 | 0.03 | 0.00 | 99 | 1009.8 |
| 20260903141007 | 54 | 135 | 0.0 | 1.0 | 0.00 | 0.03 | 0.00 | 99 | 1009.8 |
| 20260903140507 | 54 | 144 | 1.0 | 5.0 | 0.00 | 0.03 | 0.00 | 99 | 1009.8 |
| 20260903140007 | 54 | 180 | 2.0 | 4.0 | 0.00 | 0.03 | 0.00 | 99 | 1009.8 |
| 20260903135507 | 54 | 180 | 0.0 | 0.0 | 0.00 | 0.03 | 0.00 | 99 | 1009.8 |
| 20260903135007 | 54 | 234 | 1.0 | 5.0 | 0.00 | 0.03 | 0.00 | 99 | 1009.8 |
| 20260903134507 | 54 | 270 | 1.0 | 3.0 | 0.00 | 0.03 | 0.00 | 99 | 1009.8 |
| 20260903134007 | 54 | 199 | 1.0 | 3.0 | 0.00 | 0.03 | 0.00 | 99 | 1009.8 |
| 20260903133507 | 54 | 365 | 0.0 | 1.0 | 0.00 | 0.03 | 0.00 | 99 | 1009.8 |
| 20260903133007 | 54 | 299 | 1.0 | 3.0 | 0.00 | 0.03 | 0.00 | 99 | 1009.8 |
| 20260903132506 | 54 | 81 | 1.0 | 2.0 | 0.00 | 0.03 | 0.00 | 99 | 1009.8 |
| 20260903132008 | 55 | 27 | 1.0 | 4.0 | 0.00 | 0.02 | 0.00 | 99 | 1009.8 |
| 20260903131507 | 55 | 153 | 0.0 | 2.0 | 0.00 | 0.02 | 0.00 | 99 | 1009.7 |
| 20260903131007 | 55 | 171 | 1.0 | 4.0 | 0.00 | 0.02 | 0.00 | 99 | 1009.5 |
| 20260903130507 | 55 | 34 | 0.0 | 2.0 | 0.00 | 0.02 | 0.00 | 99 | 1009.8 |
| 20260903130007 | 55 | 81 | 1.0 | 4.0 | 0.00 | 0.02 | 0.00 | 99 | 1009.8 |
| 20260903125506 | 55 | 198 | 2.0 | 5.0 | 0.00 | 0.02 | 0.00 | 99 | 1009.8 |
| 20260903125007 | 55 | 126 | 0.0 | 1.0 | 0.00 | 0.02 | 0.00 | 99 | 1009.8 |
| 20260903124507 | 54 | 190 | 3.0 | 5.0 | 0.00 | 0.01 | 0.00 | 99 | 1009.8 |
| 20260903124007 | 54 | 191 | 1.0 | 3.0 | 0.00 | 0.01 | 0.00 | 99 | 1009.8 |
| 20260903123507 | 54 | 180 | 5.0 | 7.0 | 0.00 | 0.01 | 0.00 | 99 | 1009.8 |
| 20260903123007 | 54 | 117 | 2.0 | 5.0 | 0.00 | 0.01 | 0.00 | 99 | 1009.8 |
| 20260903122507 | 54 | 135 | 1.0 | 4.0 | 0.00 | 0.01 | 0.00 | 99 | 1009.8 |
| 20260903122007 | 54 | 135 | 0.0 | 2.0 | 0.00 | 0.01 | 0.00 | 99 | 1009.8 |
| 20260903121507 | 54 | 135 | 0.0 | 5.0 | 0.00 | 0.01 | 0.00 | 99 | 1009.8 |
| 20260903121007 | 54 | 171 | 1.0 | 5.0 | 0.00 | 0.01 | 0.00 | 99 | 1009.8 |
| 20260903120507 | 54 | 180 | 1.0 | 3.0 | 0.00 | 0.01 | 0.00 | 99 | 1009.8 |
| 20260903120007 | 54 | 180 | 0.0 | 1.0 | 0.00 | 0.01 | 0.00 | 99 | 1009.8 |
| 20260903115506 | 54 | 198 | 2.0 | 5.0 | 0.00 | 0.01 | 0.00 | 99 | 1009.8 |
| 20260903115007 | 54 | 99 | 2.0 | 5.0 | 0.00 | 0.01 | 0.00 | 99 | 1009.8 |
| 20260903114507 | 54 | 90 | 0.0 | 2.0 | 0.00 | 0.01 | 0.00 | 99 | 1009.8 |
| 20260903114007 | 54 | 135 | 1.0 | 2.0 | 0.00 | 0.01 | 0.00 | 99 | 1009.8 |
| 20260903113507 | 54 | 315 | 0.0 | 0.0 | 0.00 | 0.01 | 0.00 | 99 | 1009.8 |
| 20260903113007 | 54 | 234 | 1.0 | 3.0 | 0.00 | 0.01 | 0.00 | 99 | 1009.8 |
| 20260903112507 | 54 | 158 | 2.0 | 4.0 | 0.00 | 0.01 | 0.00 | 99 | 1009.8 |
| 20260903112007 | 54 | 145 | 1.0 | 2.0 | 0.00 | 0.01 | 0.00 | 99 | 1009.8 |
| 20260903111507 | 54 | 127 | 3.0 | 5.0 | 0.00 | 0.01 | 0.00 | 99 | 1009.8 |
| 20260903111006 | 55 | 153 | 1.0 | 5.0 | 0.00 | 0.01 | 0.00 | 99 | 1009.8 |
| 20260903110508 | 55 | 113 | 2.0 | 5.0 | 0.00 | 0.01 | 0.00 | 99 | 1009.8 |
| 20260903110012 | 55 | 90 | 1.0 | 2.0 | 0.00 | 0.01 | 0.00 | 99 | 1009.8 |
| 20260903105507 | 55 | 90 | 0.0 | 0.0 | 0.00 | 0.01 | 0.00 | 99 | 1009.8 |
| 20260903105007 | 55 | 90 | 0.0 | 0.0 | 0.00 | 0.01 | 0.00 | 99 | 1009.8 |
| 20260903104507 | 55 | 90 | 1.0 | 2.0 | 0.00 | 0.01 | 0.00 | 99 | 1009.8 |
| 20260903104007 | 55 | 126 | 1.0 | 4.0 | 0.00 | 0.01 | 0.00 | 99 | 1009.8 |
| 20260903103506 | 55 | 198 | 2.0 | 5.0 | 0.00 | 0.01 | 0.00 | 99 | 1009.8 |
| 20260903103007 | 55 | 171 | 1.0 | 4.0 | 0.00 | 0.01 | 0.00 | 99 | 1009.8 |
| 20260903102507 | 55 | 270 | 1.0 | 2.0 | 0.00 | 0.01 | 0.00 | 99 | 1009.8 |
| 20260903102007 | 55 | 270 | 0.0 | 0.0 | 0.00 | 0.01 | 0.00 | 99 | 1009.8 |
| 20260903101507 | 55 | 270 | 0.0 | 1.0 | 0.00 | 0.01 | 0.00 | 99 | 1009.8 |
| 20260903101007 | 55 | 308 | 1.0 | 5.0 | 0.00 | 0.01 | 0.00 | 99 | 1009.8 |
| 20260903100507 | 55 | 299 | 1.0 | 3.0 | 0.00 | 0.01 | 0.00 | 99 | 1009.8 |
| 20260903100007 | 55 | 270 | 1.0 | 4.0 | 0.00 | 0.01 | 0.00 | 99 | 1009.8 |
| 20260903095507 | 55 | 108 | 3.0 | 5.0 | 0.00 | 0.01 | 0.00 | 99 | 1009.8 |
| 20260903095006 | 55 | 0 | 0.0 | 0.0 | 0.00 | 0.01 | 0.00 | 99 | 1009.8 |
| 20260903094507 | 55 | 126 | 1.0 | 3.0 | 0.00 | 0.01 | 0.00 | 99 | 1009.5 |
| 20260903094007 | 55 | 218 | 2.0 | 4.0 | 0.00 | 0.01 | 0.00 | 99 | 1009.8 |
| 20260903093507 | 55 | 54 | 1.0 | 3.0 | 0.00 | 0.01 | 0.00 | 99 | 1009.8 |
| 20260903093006 | 55 | 45 | 0.0 | 0.0 | 0.00 | 0.01 | 0.00 | 99 | 1009.8 |
| 20260903092507 | 55 | 45 | 0.0 | 1.0 | 0.00 | 0.01 | 0.00 | 99 | 1009.8 |
| 20260903092007 | 55 | 36 | 1.0 | 3.0 | 0.00 | 0.01 | 0.00 | 99 | 1009.8 |
| 20260903091507 | 55 | 0 | 0.0 | 2.0 | 0.00 | 0.01 | 0.00 | 99 | 1009.8 |
| 20260903091006 | 55 | 144 | 1.0 | 3.0 | 0.00 | 0.01 | 0.00 | 99 | 1009.8 |
| 20260903090507 | 55 | 169 | 2.0 | 5.0 | 0.00 | 0.01 | 0.00 | 99 | 1009.8 |
| 20260903090007 | 55 | 135 | 0.0 | 1.0 | 0.00 | 0.01 | 0.00 | 99 | 1009.8 |
| 20260903085507 | 56 | 126 | 2.0 | 5.0 | 0.00 | 0.01 | 0.00 | 99 | 1009.8 |
| 20260903085007 | 56 | 72 | 1.0 | 5.0 | 0.00 | 0.01 | 0.00 | 99 | 1009.8 |
| 20260903084507 | 56 | 117 | 1.0 | 2.0 | 0.00 | 0.01 | 0.00 | 99 | 1009.8 |
| 20260903084006 | 56 | 180 | 0.0 | 1.0 | 0.00 | 0.01 | 0.00 | 99 | 1009.8 |
| 20260903083507 | 56 | 180 | 1.0 | 4.0 | 0.00 | 0.01 | 0.00 | 99 | 1009.9 |
| 20260903083007 | 56 | 144 | 2.0 | 4.0 | 0.00 | 0.01 | 0.00 | 99 | 1010.0 |
| 20260903082507 | 56 | 144 | 1.0 | 3.0 | 0.00 | 0.00 | 0.00 | 99 | 1009.8 |
| 20260903082007 | 56 | 108 | 0.0 | 1.0 | 0.00 | 0.00 | 0.00 | 99 | 1009.8 |
| 20260903081508 | 56 | 180 | 1.0 | 2.0 | 0.00 | 0.00 | 0.00 | 99 | 1009.8 |
| 20260903081007 | 56 | 180 | 1.0 | 2.0 | 0.00 | 0.00 | 0.00 | 99 | 1010.0 |
| 20260903080507 | 56 | 180 | 1.0 | 5.0 | 0.00 | 0.00 | 0.00 | 99 | 1010.0 |
| 20260903080007 | 56 | 180 | 1.0 | 4.0 | 0.00 | 0.00 | 0.00 | 99 | 1010.2 |
| 20260903075507 | 56 | 135 | 2.0 | 5.0 | 0.00 | 0.00 | 0.00 | 99 | 1010.2 |
| 20260903075006 | 56 | 126 | 2.0 | 5.0 | 0.00 | 0.00 | 0.00 | 99 | 1010.2 |
| 20260903074507 | 56 | 99 | 1.0 | 5.0 | 0.00 | 0.00 | 0.00 | 99 | 1010.2 |
| 20260903074006 | 56 | 90 | 1.0 | 3.0 | 0.00 | 0.00 | 0.00 | 99 | 1010.2 |
| 20260903073507 | 56 | 117 | 1.0 | 2.0 | 0.00 | 0.00 | 0.00 | 99 | 1010.1 |
| 20260903073007 | 56 | 153 | 4.0 | 8.0 | 0.00 | 0.00 | 0.00 | 99 | 1010.1 |
| 20260903072507 | 56 | 208 | 3.0 | 5.0 | 0.00 | 0.00 | 0.00 | 99 | 1009.9 |
| 20260903072007 | 56 | 162 | 2.0 | 5.0 | 0.00 | 0.00 | 0.00 | 99 | 1009.8 |
| 20260903071508 | 56 | 135 | 3.0 | 7.0 | 0.00 | 0.00 | 0.00 | 99 | 1009.8 |
| 20260903071007 | 56 | 153 | 5.0 | 7.0 | 0.00 | 0.00 | 0.00 | 99 | 1009.8 |
| 20260903070507 | 56 | 144 | 2.0 | 5.0 | 0.00 | 0.00 | 0.00 | 99 | 1009.8 |
| 20260903070007 | 56 | 216 | 3.0 | 7.0 | 0.00 | 0.00 | 0.00 | 99 | 1009.8 |
| 20260903065507 | 56 | 153 | 4.0 | 5.0 | 0.00 | 0.17 | 0.00 | 99 | 1009.8 |
| 20260903065007 | 56 | 162 | 3.0 | 5.0 | 0.00 | 0.17 | 0.00 | 99 | 1009.8 |
| 20260903064506 | 56 | 144 | 5.0 | 8.0 | 0.00 | 0.17 | 0.00 | 99 | 1009.8 |
| 20260903064007 | 56 | 90 | 3.0 | 4.0 | 0.00 | 0.17 | 0.00 | 99 | 1009.8 |
| 20260903063507 | 56 | 99 | 2.0 | 7.0 | 0.00 | 0.17 | 0.00 | 99 | 1009.8 |
| 20260903063007 | 56 | 113 | 5.0 | 6.0 | 0.00 | 0.17 | 0.00 | 99 | 1009.8 |
| 20260903062507 | 56 | 144 | 3.0 | 6.0 | 0.00 | 0.17 | 0.00 | 99 | 1009.8 |
| 20260903062007 | 56 | 144 | 4.0 | 7.0 | 0.00 | 0.17 | 0.00 | 99 | 1009.8 |
| 20260903061507 | 56 | 146 | 3.0 | 5.0 | 0.00 | 0.17 | 0.00 | 99 | 1009.8 |
| 20260903061007 | 56 | 162 | 5.0 | 6.0 | 0.00 | 0.17 | 0.00 | 99 | 1009.8 |